Norman Wells, Northwest Territories

3:56 AM MDT on April 24, 2017 (GMT -0600)
Norman Wells

Weather History for CYVQ - November, 2012

Change the Weather History Date:

Saturday, November 17, 2012

  Actual Average Record
Temperature  
Mean Temperature -20 °F -  
Max Temperature -12 °F -3 °F 17 °F (2000)
Min Temperature -27 °F -16 °F -27 °F (2012)
Degree Days  
Heating Degree Days 84    
Moisture  
Dew Point -25 °F    
Average Humidity 71    
Maximum Humidity 77    
Minimum Humidity 57    
Precipitation  
Precipitation 0.01 in 0.02 in - ()
Sea Level Pressure  
Sea Level Pressure 30.32 in    
Wind  
Wind Speed 3 mph ()    
Max Wind Speed 6 mph    
Max Gust Speed -    
Visibility 14.8 miles    
Events Snow    
Averages and records for this station are not official NWS values.
T = Trace of Precipitation, MM = Missing Value Source: Averaged Metar Reports

Daily Weather History Graph

Daily Weather History Graph

Search for Another Location

Airport or City:

Trip Planner

Search our weather history database for the weather conditions in past years. The results will help you decide how hot, cold, wet, or windy it might be!

Date:

Astronomy

Nov. 17, 2012 Rise Set
Actual Time 10:16 AM MST 4:07 PM MST
Civil Twilight 9:09 AM MST 5:13 PM MST
Nautical Twilight 8:05 AM MST 6:18 PM MST
Astronomical Twilight 7:05 AM MST 7:17 PM MST
Moon 2:02 PM MST (11/17) 8:34 PM MST (11/17)
Length of Visible Light 8h 03m
Length of Day
5h 51m
Waxing Crescent, 21% of the Moon is Illuminated
Nov 17
Waxing Crescent
Nov 20
First Quarter
Nov 28
Full
Dec 6
Last Quarter
Dec 13
New

Hourly Weather History & Observations

Time (MST) Temp. Windchill Dew Point Humidity Pressure Visibility Wind Dir Wind Speed Gust Speed Precip Events Conditions
12:00 AM -22.0 °F -35.6 °F -29.2 °F 69% 30.43 in 20.0 mi East 4.6 mph - N/A   Ice Crystals
1:00 AM -20.2 °F -35.5 °F -25.6 °F 76% 30.43 in 10.0 mi East 5.8 mph - N/A Snow Light Snow
1:40 AM -22.0 °F -33.0 °F -27.4 °F 76% 30.42 in 15.0 mi ENE 3.5 mph - N/A   Ice Crystals
2:00 AM -23.8 °F - -31.0 °F 69% 30.41 in 15.0 mi Calm Calm - N/A   Ice Crystals
3:00 AM -23.8 °F -35.0 °F -29.2 °F 76% 30.40 in 15.0 mi East 3.5 mph - N/A   Ice Crystals
4:00 AM -18.4 °F - -23.8 °F 76% 30.40 in 15.0 mi ESE 2.3 mph - N/A   Ice Crystals
4:41 AM -18.4 °F -28.9 °F -23.8 °F 76% 30.39 in 10.0 mi ENE 3.5 mph - N/A Snow Light Snow
5:00 AM -17 °F - -23 °F 62% 30.39 in 10 mi East 3.5 mph - - Snow Light Snow
5:00 AM -16.6 °F -26.8 °F -22.0 °F 76% 30.39 in 10.0 mi East 3.5 mph - N/A Snow Light Snow
6:00 AM -14.8 °F -24.8 °F -22.0 °F 70% 30.38 in 10.0 mi East 3.5 mph - N/A Snow Light Snow
7:00 AM -14.8 °F - -22.0 °F 70% 30.35 in 15.0 mi Calm Calm - N/A Snow Light Snow
8:00 AM -14.8 °F -24.8 °F -20.2 °F 77% 30.36 in 15.0 mi East 3.5 mph - N/A Snow Light Snow
9:00 AM -14.8 °F - -22.0 °F 70% 30.34 in 10.0 mi Calm Calm - N/A Snow Light Snow
10:00 AM -16.6 °F - -23.8 °F 70% 30.34 in 10.0 mi Calm Calm - N/A Snow Light Snow
11:00 AM -17 °F - -23 °F 59% 30.33 in 10 mi ENE 2.3 mph - - Snow Light Snow
11:00 AM -16.6 °F - -23.8 °F 70% 30.33 in 10.0 mi Calm Calm - N/A Snow Light Snow
12:00 PM -13.0 °F - -20.2 °F 70% 30.31 in 8.0 mi Calm Calm - N/A Snow Light Snow
1:00 PM -13.0 °F - -18.4 °F 77% 30.30 in 10.0 mi Calm Calm - N/A Snow Light Snow
2:00 PM -13.0 °F -22.7 °F -18.4 °F 77% 30.29 in 10.0 mi WNW 3.5 mph - N/A Snow Light Snow
3:00 PM -13.0 °F -22.7 °F -20.2 °F 70% 30.28 in 20.0 mi WNW 3.5 mph - N/A Snow Light Snow
3:40 PM -14.8 °F -24.8 °F -20.2 °F 77% 30.27 in 20.0 mi NW 3.5 mph - N/A   Ice Crystals
4:00 PM -14.8 °F -24.8 °F -20.2 °F 77% 30.27 in 20.0 mi West 3.5 mph - N/A   Ice Crystals
5:00 PM -22 °F - -28 °F 60% 30.26 in 19 mi WNW 3.5 mph - - Snow Snow
5:00 PM -22.0 °F -33.0 °F -27.4 °F 76% 30.25 in 20.0 mi WNW 3.5 mph - N/A   Ice Crystals
6:00 PM -23.8 °F - -31.0 °F 69% 30.26 in 20.0 mi Calm Calm - N/A   Ice Crystals
7:00 PM -25.6 °F -37.1 °F -32.8 °F 69% 30.25 in 20.0 mi WNW 3.5 mph - N/A   Ice Crystals
8:00 PM -27.4 °F -39.2 °F -34.6 °F 69% 30.23 in 20.0 mi WNW 3.5 mph - N/A   Ice Crystals
9:00 PM -22.0 °F - -29.2 °F 69% 30.24 in 20.0 mi Variable 2.3 mph - N/A   Ice Crystals
9:50 PM -20.2 °F -35.5 °F -27.4 °F 69% 30.22 in 20.0 mi West 5.8 mph - N/A Snow Light Snow
10:00 PM -20.2 °F -33.5 °F -27.4 °F 69% 30.22 in 15.0 mi West 4.6 mph - N/A Snow Light Snow
11:00 PM -20 °F - -26 °F 57% 30.21 in 15 mi West 3.5 mph - - Snow Light Snow
11:00 PM -20.2 °F -30.9 °F -25.6 °F 76% 30.21 in 15.0 mi West 3.5 mph - N/A Snow Light Snow